Latrobe, PA

2:08 PM EDT on August 17, 2019 (GMT -0400)
Arnold Palmer Regional

Weather History for KLBE - May, 2019

Change the Weather History Date:

Saturday, May 4, 2019

  Actual Average Record
Temperature  
Mean Temperature 64 °F -  
Max Temperature 69 °F 69 °F 89 °F (2001)
Min Temperature 59 °F 45 °F 30 °F (2002)
Degree Days  
Heating Degree Days 1    
Growing Degree Days 14 (Base 50)    
Moisture  
Dew Point 61 °F    
Average Humidity 96    
Maximum Humidity 100    
Minimum Humidity 73    
Precipitation  
Precipitation 0.00 in - - ()
Sea Level Pressure  
Sea Level Pressure 29.88 in    
Wind  
Wind Speed 1 mph (WNW)    
Max Wind Speed 10 mph    
Max Gust Speed -    
Visibility 6 miles    
Events Fog , Rain    
Averages and records for this station are not official NWS values.
T = Trace of Precipitation, MM = Missing Value Source: NWS Daily Summary

Daily Weather History Graph

Daily Weather History Graph

Search for Another Location

Airport or City:

Astronomy

May. 04, 2019 Rise Set
Actual Time 6:13 AM EDT 8:15 PM EDT
Civil Twilight 5:43 AM EDT 8:45 PM EDT
Nautical Twilight 5:07 AM EDT 9:22 PM EDT
Astronomical Twilight 4:28 AM EDT 10:01 PM EDT
Moon 6:24 AM EDT (5/4) 8:03 PM EDT (5/4)
Length of Visible Light 15h 01m
Length of Day
14h 02m
Waning Crescent, 0% of the Moon is Illuminated
May 4
Waning Crescent
May 4
New
May 11
First Quarter
May 18
Full
May 26
Last Quarter

Hourly Weather History & Observations

Time (EDT) Temp. Dew Point Humidity Pressure Visibility Wind Dir Wind Speed Gust Speed Precip Events Conditions
12:15 AM 62.6 °F 62.6 °F 100% 29.92 in 0.2 mi Calm Calm - N/A Fog Fog
12:35 AM 62.6 °F 62.6 °F 100% 29.92 in 0.2 mi Calm Calm - N/A Fog Fog
12:55 AM 62.6 °F 62.6 °F 100% 29.92 in 0.2 mi Calm Calm - N/A Fog Fog
1:15 AM 60.8 °F 60.8 °F 100% 29.91 in 0.2 mi Calm Calm - N/A Fog Fog
1:35 AM 60.8 °F 60.8 °F 100% 29.91 in 0.2 mi Calm Calm - N/A Fog Fog
1:55 AM 60.8 °F 60.8 °F 100% 29.91 in 1.2 mi Calm Calm - N/A   Overcast
2:15 AM 62.6 °F 62.6 °F 100% 29.90 in 1.5 mi Calm Calm - N/A   Overcast
2:35 AM 62.6 °F 62.6 °F 100% 29.89 in 0.2 mi Calm Calm - N/A Rain Light Rain
2:55 AM 62.6 °F 62.6 °F 100% 29.88 in 0.2 mi Calm Calm - N/A Fog Fog
3:15 AM - - N/A% 29.88 in 0.2 mi Calm Calm - N/A Fog Fog
3:35 AM 62.6 °F 62.6 °F 100% 29.88 in 0.2 mi Calm Calm - N/A Fog Fog
3:55 AM 62.6 °F 62.6 °F 100% 29.88 in 0.8 mi Calm Calm - N/A   Overcast
4:15 AM 62.6 °F 62.6 °F 100% 29.89 in 1.0 mi Calm Calm - N/A   Overcast
4:35 AM - - N/A% 29.88 in 0.8 mi Calm Calm - N/A   Overcast
4:55 AM - - N/A% 29.89 in 0.8 mi Calm Calm - N/A   Overcast
5:15 AM 60.8 °F 60.8 °F 100% 29.88 in 3.0 mi Calm Calm - N/A   Overcast
5:35 AM 60.8 °F 60.8 °F 100% 29.89 in 3.0 mi Calm Calm - N/A   Overcast
5:55 AM 60.8 °F 60.8 °F 100% 29.89 in 3.0 mi NW 5.8 mph - N/A   Overcast
6:45 AM 60.8 °F 60.8 °F 100% 29.90 in 2.5 mi Calm Calm - N/A   Overcast
7:50 AM 60.8 °F 60.8 °F 100% 29.91 in 2.0 mi Calm Calm - N/A   Overcast
8:50 AM 60.8 °F 60.8 °F 100% 29.92 in 2.0 mi Calm Calm - N/A   Overcast
9:45 AM 60.8 °F 60.8 °F 100% 29.93 in 2.5 mi Calm Calm - N/A   Overcast
10:45 AM 62.6 °F 62.6 °F 100% 29.92 in 6.0 mi Calm Calm - N/A   Overcast
11:45 AM 66.2 °F 62.6 °F 88% 29.91 in 7.0 mi Calm Calm - N/A   Overcast
12:51 PM 68.0 °F 62.6 °F 83% 29.89 in 8.0 mi West 10.4 mph - N/A   Mostly Cloudy
1:51 PM 69.8 °F 60.8 °F 73% 29.87 in 10.0 mi WSW 6.9 mph - N/A   Mostly Cloudy
2:51 PM 68.0 °F 60.8 °F 78% 29.87 in 10.0 mi WSW 6.9 mph - N/A   Mostly Cloudy
3:47 PM 66.2 °F 64.4 °F 94% 29.86 in 15.0 mi Variable 4.6 mph - N/A   Mostly Cloudy
4:47 PM 64.4 °F 60.8 °F 88% 29.86 in 15.0 mi WNW 9.2 mph - N/A   Mostly Cloudy
5:47 PM 64.4 °F 59.0 °F 83% 29.86 in 15.0 mi Calm Calm - N/A   Overcast
6:47 PM 64.4 °F 57.2 °F 77% 29.85 in 15.0 mi Variable 5.8 mph - N/A   Overcast
7:47 PM 62.6 °F 57.2 °F 82% 29.85 in 15.0 mi Variable 5.8 mph - N/A   Overcast
8:47 PM 60.8 °F 59.0 °F 94% 29.85 in 15.0 mi Calm Calm - N/A   Mostly Cloudy
9:47 PM 60.8 °F 60.8 °F 100% 29.85 in 15.0 mi Calm Calm - N/A Rain Light Rain
10:15 PM 59.0 °F 59.0 °F 100% 29.87 in 10.0 mi Calm Calm - N/A   Light Drizzle
10:35 PM 59.0 °F 59.0 °F 100% 29.86 in 10.0 mi NNE 4.6 mph - N/A   Overcast
10:55 PM 59.0 °F 59.0 °F 100% 29.85 in 10.0 mi Calm Calm - N/A   Scattered Clouds
11:15 PM 59.0 °F 59.0 °F 100% 29.85 in 10.0 mi NE 3.5 mph - N/A   Scattered Clouds
11:35 PM 59.0 °F 59.0 °F 100% 29.84 in 10.0 mi Calm Calm - N/A   Light Drizzle
11:55 PM 59.0 °F 59.0 °F 100% 29.84 in 10.0 mi Calm Calm - N/A Rain Light Rain